User: anonymous   Login
Location: Unspecified
(0.0000°N, 0.0000°E)
Time: 17:28:24
(UTC+00:00)
Language:

USA 200 - Orbit

View from above orbital plane
View from above orbital plane
View from above satellite
View from above satellite

Ground track
Ground track

The orbit data is extracted from the following two-line orbital elements,

1 32706U 08010A   17310.88148353 0.00000000  00000-0  00000-0 0    02
2 32706  63.4949 327.1426 7129594 271.6579  15.1862  2.00620986    00
Epoch (UTC): 06 November 2017 21:09:20
Eccentricity: 0.7129594
inclination: 63.4949°
perigee height: 1244 km
apogee height: 39109 km
right ascension of ascending node: 327.1426°
argument of perigee: 271.6579°
revolutions per day: 2.00620986
mean anomaly at epoch: 15.1862°
orbit number at epoch: 0

The dashed part of the orbit path shows where the satellite is in the earth's shadow,  

DLR